Regional Weather Roundup
Issued by NWS

Home | Current Version | Previous Version | Graphics & Text | Print | Product List | Glossary On
Versions: 1 2 3 4 5 6 7 8 9 10 11 12 13 14 15 16 17 18 19 20 21 22 23 24 25 26 27 28 29 30 31 32 33 34 35 36 37 38 39 40 41 42 43 44 45 46 47 48 49 50
515
ASUS44 KJAN 230410
RWRMS

MISSISSIPPI HOURLY WEATHER ROUNDUP
NATIONAL WEATHER SERVICE JACKSON MS
1100 PM CDT WED OCT 22 2014

NOTE: "FAIR: INDICATES FEW OR NO CLOUDS BELOW 12,000 FEET WITH NO
SIGNIFICANT WEATHER AND/OR OBSTRUCTIONS TO VISIBILITY.

MSZ001>002-007>008-010>013-018>021-025>028-034>036-230500-
NORTHWEST MISSISSIPPI

CITY           SKY/WX    TMP DP  RH WIND       PRES   REMARKS
CLARKSDALE     FAIR      52  46  82 NE6       30.19R
CLEVELAND      FAIR      52  47  84 NE3       30.17R
GREENWOOD      CLEAR     49  46  90 CALM      30.16S
GREENVILLE     CLEAR     52  44  74 N5        30.16R
GRENADA          N/A    N/A N/A N/A MISG        N/A
OLIVE BRANCH   CLEAR     48  46  93 NE5       30.19S
OXFORD         FAIR      48  43  81 NE9       30.18F
TUNICA         CLEAR     52  45  76 N3        30.20R
$$

MSZ003>006-009-014>017-022>024-029>033-037>039-230500-
NORTHEAST MISSISSIPPI

CITY           SKY/WX    TMP DP  RH WIND       PRES   REMARKS
COLUMBUS AFB   CLEAR     47  46  97 NE5       30.16S
CORINTH        FAIR      46  43  87 CALM      30.19S
GOLDN TRIANGLE CLEAR     50  43  76 N5        30.16R
STARKVILLE     FAIR      45  45 100 CALM      30.16S
TUPELO         CLEAR     47  42  83 NE6       30.17F
$$

MSZ040-058-230500-
CENTRAL MISSISSIPPI

CITY           SKY/WX    TMP DP  RH WIND       PRES   REMARKS
JACKSON INTL   CLEAR     56  46  69 NE6       30.14S
JACKSON HAWKNS CLEAR     58  47  66 NE3       30.14R
MERIDIAN KEY   CLEAR     47  45  93 CALM      30.14R
MERIDIAN NAS   CLEAR     52  44  74 CALM      30.14S
RAYMOND        FAIR      50  45  81 MISG      30.14S
VICKSBURG      CLEAR     54  47  77 NE7       30.15R
$$

MSZ059>079-230500-
SOUTH MISSISSIPPI

CITY           SKY/WX    TMP DP  RH WIND       PRES   REMARKS
BROOKHAVEN     FAIR      55  48  76 CALM      30.14S
COLUMBIA         N/A    N/A N/A N/A MISG        N/A
HATTIESBURG    CLEAR     54  48  80 NW3       30.12S
MCCOMB         CLEAR     60  49  66 N5        30.12R
NATCHEZ        CLEAR     52  48  87 CALM      30.14S
PINE BELT      CLEAR     54  45  71 N6        30.13F
$$

MSZ080>082-230500-
COASTAL MISSISSIPPI

CITY           SKY/WX    TMP DP  RH WIND       PRES   REMARKS
BILOXI         CLEAR     60  49  68 NE7       30.09R
PASCAGOULA     CLEAR     52  49  89 CALM      30.10R
GULFPORT       CLEAR     62  48  60 NE5       30.08S
$$



USA.gov is the U.S. government's official web portal to all federal, state and local government web resources and services.